Tracking 19644 objects as of 24-Apr-2019
HD Live streaming from Space Station
objects crossing your sky now

MIDAS 3 DEB


MIDAS 3 DEB is no longer on orbit


NORAD ID: 6215
Int'l Code: 1961-018E
Perigee: N/A
Apogee: N/A
Inclination: N/A
Period: N/A
Semi major axis: N/A
RCS: N/A
Launch date: July 12, 1961
Source: United States (US)
Launch site: AIR FORCE WESTERN TEST RANGE (AFWTR)
Decay date: 1976-10-30

Note: This is SATELLITE DEBRIS
aabbcc
Your satellite tracking list
Your tracking list is empty




NASA's NSSDC Master Catalog

Two Line Element Set (TLE):
1  6215U 61018E   19097.96798110 +.00000010 +00000-0 +32170-2 0  9993
2  6215 091.2081 087.5455 0079302 207.4153 152.2522 08.90955876145921
Source of the keplerian elements: AFSPC